User: anonymous
Location: Caltech
(34.1382°N, 118.1253°W)
Time: 22:39:48
(UTC-07:00)
Language:

Cosmos 2333 Rocket - Orbit

View from above orbital plane
View from above orbital plane
View from above satellite
View from above satellite

Ground track
Ground track

The orbit data is extracted from the following two-line orbital elements,

1 24298U 96051B   14259.94259169 -.00000160  00000-0 -60100-4 0  5437
2 24298 070.8654 018.7284 0018135 240.1204 258.5177 14.12462396930025
Epoch (UTC): 16 September 2014 22:37:19
Eccentricity: 0.0018135
inclination: 70.8654°
perigee height: 838 km
apogee height: 864 km
right ascension of ascending node: 18.7284°
argument of perigee: 240.1204°
revolutions per day: 14.12462396
mean anomaly at epoch: 258.5177°
orbit number at epoch: 93002

The dashed part of the orbit path shows where the satellite is in the earth's shadow,  

DLR